Regional Weather Roundup
Issued by NWS

Home | Current Version | Previous Version | Graphics & Text | Print | Product List | Glossary On
Versions: 1 2 3 4 5 6 7 8 9 10 11 12 13 14 15 16 17 18 19 20 21 22 23 24 25 26 27 28 29 30 31 32 33 34 35 36 37 38 39 40 41 42 43 44 45 46 47 48 49 50
043
ASUS43 KMKX 292311
RWRWI

WISCONSIN REGIONAL WEATHER ROUNDUP
NATIONAL WEATHER SERVICE MILWAUKEE/SULLIVAN WI
600 PM CDT SAT APR 29 2017

NOTE: "FAIR" INDICATES FEW OR NO CLOUDS BELOW 12,000 FEET WITH NO
SIGNIFICANT WEATHER AND/OR OBSTRUCTIONS TO VISIBILITY.

WIZ001-002-006>008-014>016-023>028-300000-
NORTHWEST WISCONSIN

CITY           SKY/WX    TMP DP  RH WIND       PRES   REMARKS
SUPERIOR ARPT  CLOUDY    43  24  48 NE13      30.34S
ASHLAND        MOSUNNY   44  21  40 E13       30.35F
HAYWARD        CLOUDY    48  21  34 NE14      30.28F
SIREN          CLOUDY    53  17  24 E13G18    30.23F
CUMBERLAND     CLOUDY    50  23  34 NE10G21   30.20F
RICE LAKE      CLOUDY    53  25  33 NE16      30.22F
CHETEK         NOT AVBL
LADYSMITH      CLOUDY    52  25  35 NE15      30.24F
EAU CLAIRE     CLOUDY    53  26  35 NE13      30.16F
MENOMONIE      CLOUDY    54  25  32 NE15      30.17F
NEW RICHMOND   CLOUDY    54  22  28 NE17G23   30.17F
OSCEOLA        CLOUDY    55  23  29 NE16G25   30.20F
$$

WIZ003>005-009-010-017-018-300000-
NORTH CENTRAL WISCONSIN

CITY           SKY/WX    TMP DP  RH WIND       PRES   REMARKS
MANITOWISH WTR PTSUNNY   47  20  34 E12       30.27F
ARBOR VITAE    CLOUDY    49  22  34 NE6       30.25F
WOODRUFF       CLOUDY    49  22  34 NE6       30.25F
RHINELANDER    PTSUNNY   49  24  37 NE6       30.24F
EAGLE RIVER    CLOUDY    47  19  31 NE9       30.25F
LAND O LAKES   CLOUDY    47  20  33 NE8       30.29F
PHILLIPS       CLOUDY    48  24  38 NE10      30.25F
TOMAHAWK       PTSUNNY   48  24  39 N10       30.24F
MEDFORD        CLOUDY    48  27  44 NE14      30.20F
MERRILL        PTSUNNY   50  28  42 NE12      30.21F
$$

WIZ029-030-035-036-043>047-300000-
CENTRAL WISCONSIN

CITY           SKY/WX    TMP DP  RH WIND       PRES   REMARKS
WAUSAU         CLOUDY    50  27  40 NE12G20   30.18F
MOSINEE        NOT AVBL
MARSHFIELD     CLOUDY    50  29  44 NE13      30.17F
STEVENS POINT  CLOUDY    47  29  48 E9        30.21S
WAUPACA        CLOUDY    47  31  54 E8        30.24R
WAUTOMA        CLOUDY    46  30  53 E10       30.24R
WISC RAPIDS    CLOUDY    49  30  48 E10       30.21F
CAMP DOUGLAS   CLOUDY    47  30  53 E14G20    30.20F
$$

WIZ011>013-019>022-031-037>040-048>050-300000-
NORTHEAST WISCONSIN

CITY           SKY/WX    TMP DP  RH WIND       PRES   REMARKS
ANTIGO         CLOUDY    48  29  48 NE15      30.21F
SHAWANO        CLOUDY    49  32  53 E8        30.23F
OCONTO         CLOUDY    46  27  48 NE12G20   30.24
STURGEON BAY   CLOUDY    45  29  53 NE10      30.25F
GREEN BAY      CLOUDY    47  33  58 NE15G23   30.25R
MANITOWOC      CLOUDY    43  27  53 VRB7G16   30.27R
APPLETON       CLOUDY    46  25  42 NE14G21   30.23R
CLINTONVILLE   CLOUDY    45  30  57 E8G16     30.23S
OSHKOSH        CLOUDY    45  29  53 NE14G25   30.24R
$$

WIZ032>034-041-042-053>061-300000-
SOUTHWEST WISCONSIN

CITY           SKY/WX    TMP DP  RH WIND       PRES   REMARKS
LA CROSSE      CLOUDY    51  29  42 NE12G18   30.15F
SPARTA         CLOUDY    49  30  49 E13       30.18F
VIROQUA        CLOUDY    46  30  54 E20G25    30.16F
BOSCOBEL       LGT RAIN  45  36  70 E15       30.16F
PRAIRIE DU CHI DRIZZLE   44  36  72 E10       30.12F
PLATTEVILLE    CLOUDY    42  39  89 NE18G24   30.12F
$$

WIZ056-057-062-063-064-067-068-300000-
SOUTH CENTRAL WISCONSIN

CITY           SKY/WX    TMP DP  RH WIND       PRES   REMARKS
REEDSBURG      CLOUDY    44  30  56 NE14G22   30.20S
BARABOO/DELLS  CLOUDY    44  29  56 NE14G20   30.21S
LONE ROCK      LGT RAIN  43  36  76 E12       30.19F
MINERAL POINT  LGT RAIN  41  39  93 NE16G24   30.14F
MADISON        LGT RAIN  41  35  79 NE17      30.22R
MIDDLETON      CLOUDY    42  38  84 NE13G18   30.22R
WATERTOWN      RAIN      38  33  81 NE9G16    30.23R WCI  32
MONROE         LGT RAIN  37  36  93 NE21G29   30.15S WCI  27
JANESVILLE     LGT RAIN  39  39 100 NE12G17   30.18F WCI  32
$$

WIZ051-052-058>065-066-070>072-300000-
SOUTHEAST WISCONSIN

CITY           SKY/WX    TMP DP  RH WIND       PRES   REMARKS
MILWAUKEE      LGT RAIN  39  35  86 N14       30.23R FOG     WCI  31
WAUKESHA       LGT RAIN  37  32  81 NE9       30.24R WCI  31
MILWAUKEE/TIMM LGT RAIN  39  30  70 NE10G16   30.26R WCI  32
RACINE         RAIN      39  34  82 N15G25    30.24R WCI  31
KENOSHA        RAIN      38  35  89 NE17G25   30.20F FOG     WCI  28
FOND DU LAC    CLOUDY    44  26  49 NE14G25   30.25R
SHEBOYGAN      CLOUDY    42  34  73 NE21      30.25R
WEST BEND      LGT RAIN  37  32  81 NE12      30.25R WCI  30
JUNEAU         RAIN      39  33  78 NE8       30.25R WCI  33
$$

LSZ147-162-300000-
LAKE SUPERIOR

STATION/POSITION TIME  TEMP    WIND        PRES    WAVE
                       AIR SEA DIR/SP/G            HT/PER
                 (UTC) (F)     (DEG/KT/KT) (MB)    (FT/S)
DEVILS ISLAND    2300   38      70/  8/  8 1028.8F
SAXON HARBOR     2230   39      50/ 11/ 13 1027.8F
$$

LMZ867-665-643>646-300000-
LAKE MICHIGAN

STATION/POSITION TIME  TEMP    WIND        PRES    WAVE
                       AIR SEA DIR/SP/G            HT/PER
                 (UTC) (F)     (DEG/KT/KT) (MB)    (FT/S)
CHAMBERS ISLAND  2230   45      40/ 10/ 15 1024.7F
N MID LAKE BUOY  2250   39 37  340/  4/  6 1026.8F   1
NORTHPORT PIER   2240   42     330/  5/  6 1025.1F
SISTER BAY       2106   48      20/ 11/ 15   N/A
KEWAUNEE LAKESHO 2248   42      30/ 10/ 16 1023.5F
SHEBOYGAN LAKESH 2300   40      20/ 22/ 24 1024.7R
PORT WASHINGTON  2300   40      30/ 10/ 23 1025.4
MILWAUKEE LAKESH 2250   39      10/ 17/ 19   N/A
S MID LAKE BUOY  2150   40 41   20/ 17/ 21 1021.8R   6/ 7
KENOSHA   LAKESH 2300   39      10/ 26/ 29 1022.0
$$

TC  - TEMPERATURE IN CELSIUS
VSB - VISIBILITY IN STATUTE MILES
WCI - WIND CHILL INDEX
HX  - HEAT INDEX





USA.gov is the U.S. government's official web portal to all federal, state and local government web resources and services.